Regional Weather Roundup
Issued by NWS New Orleans/Baton Rouge, LA

Home | Current Version | Previous Version | Text Only | Print | Product List | Glossary Off
Versions: 1 2 3 4 5 6 7 8 9 10 11 12 13 14 15 16 17 18 19 20 21 22 23 24 25 26 27 28 29 30 31 32 33 34 35 36 37 38 39 40 41 42 43 44 45 46 47 48 49 50

556
ASUS44 KLIX 201605
RWRLIX
NEW ORLEANS REGIONAL WEATHER ROUNDUP
NATIONAL WEATHER SERVICE NEW ORLEANS LA
1100 AM CDT MON OCT 20 2014

NOTE: "FAIR" INDICATES FEW OR NO CLOUDS BELOW 12,000 FEET WITH NO
      SIGNIFICANT WEATHER AND/OR OBSTRUCTIONS TO VISIBILITY.
      SKY/WX - SKY CONDITION AND SIGNIFICANT WEATHER.
      TMP - AIR TEMPERATURE.     DP    - DEWPOINT TEMPERATURE.
      RH  - RELATIVE HUMIDITY.   PRES  - PRESSURE.
      HI  - HEAT INDEX.          WCI   - WIND CHILL INDEX.

*  THESE STATIONS ARE NOT NWS OR FAA STATIONS AND ARE NOT UNDER
   NWS QUALITY CONTROL.

LAZ038-040-048-061>063-065>067-069-201700-
SOUTHEAST LOUISIANA

CITY           SKY/WX    TMP DP  RH WIND       PRES   REMARKS
N.O. AUDUBON     N/A     78  57  48 MISG        N/A
N.O. INTL ARPT MOSUNNY   74  54  49 NE10      30.07S
N.O. LAKEFRONT SUNNY     72  57  59 NE9       30.08S
N.O. DOWNTOWN*   N/A     73  54  49 NE5       30.07F
SLIDELL        SUNNY     72  54  53 CALM      30.08R
BATON ROUGE    MOSUNNY   72  53  51 VRB5      30.08S
BOOTHVILLE     MOSUNNY   78  62  57 NE7       30.05F
BELLE CHASSE   MOSUNNY   75  60  59 NE8       30.06F
BOGALUSA*        N/A     70  53  55 CALM      30.10S
NEW ROADS*       N/A     70  52  53 CALM      30.09S
GONZALES*        N/A     72  57  59 CALM      30.08R
HAMMOND*       MOSUNNY   73  52  46 NE6       30.10R
HOUMA*         MOSUNNY   73  63  68 NE7       30.06R
PORT FOURCHON* SUNNY     77  63  61 E10       30.08S

$$

MSZ070-080>082-201700-
SOUTHERN MISSISSIPPI

CITY           SKY/WX    TMP DP  RH WIND       PRES   REMARKS
MCCOMB         SUNNY     70  49  47 NE3       30.09S
GULFPORT       SUNNY     73  51  46 VRB5      30.07S
BILOXI         SUNNY     72  54  52 NE5       30.07F
PASCAGOULA     SUNNY     74  52  46 N6        30.07F
STENNIS ARPT*  SUNNY     72  46  40 VRB5      30.08S

$$

COASTAL OBSERVATIONS
LAKE AND NEARSHORE STATIONS

STATION/POSITION TIME  TEMP    WIND        PRES    WAVE
                       AIR SEA DIR/SP/G            HT/PER
                 (UTC) (F)     (DEG/KT/KT) (MB)    (FT/S)
PASCAGOULA       1600   73      30/  4/  5 1017.6
WAVELAND YACHT   1600   69      40/  4/  5 1017.8
GRAND ISLE       1600   76 78  100/  5/ 10 1018.2
SOUTHWEST PASS   1600   78 84              1017.6
NEW CANAL        1600   69 72   60/ 10/ 11 1018.6
SHELL BEACH      1600   70 69   40/  9/ 10 1018.0

OFFSHORE STATIONS

STATION/POSITION TIME  TEMP    WIND        PRES    WAVE
                       AIR SEA DIR/SP/G            HT/PER
                 (UTC) (F)     (DEG/KT/KT) (MB)    (FT/S)
64 S DAUPHIN ISL 1459   76 80   90/  6/ 10 1018.1    2/ 6

$$




USA.gov is the U.S. government's official web portal to all federal, state and local government web resources and services.